STARLINK-36377

Last updated on Sun Mar 15 2026 00:02:07 GMT+0000 (Coordinated Universal Time)

1 67812U 26032R 26073.47892256 .00151476 00000+0 99746-3 0 9999 2 67812 97.2837 260.2974 0001459 25.3819 334.7517 15.75214456 5543
UTC large
Height (km)
Speed (km/s)
/
Latitude / Longitude
Inclination (degrees)
Orbital Period (minutes)
Azimuth
Elevation
Range (km)
Doppler Factor

Next 0 passes for location: London (51.5072 / 0.1276)

Sorry there are no passes over London.